Location: Newark
(49.8969°N, 3.3422°E)
Time: 18:56:10
(UTC+00:00)

A-11 Canister half - Pass Details

Date: 03 February 2020
Orbit: 1517 x 1683 km, 47.2° (Epoch: 22 February)

Event Time Altitude Azimuth Distance (km) Brightness Sun altitude
Rises 20:56:11 0° 226° (SW) 4,803 11.8 -40.2°
Reaches altitude 10° 20:59:26 10° 222° (SW) 3,796 11.2 -40.7°
Enters shadow 21:02:42 23° 213° (SSW) 2,854 10.4 -41.2°
Maximum altitude 21:08:32 50° 150° (SSE) 1,907 - -42.0°
Drops below altitude 10° 21:17:23 10° 79° (E) 3,700 - -43.2°
Sets 21:20:30 0° 75° (ENE) 4,674 - -43.6°
